Location: Newark
(52.2090°N, 4.1550°W)
Time: 09:45:42
(UTC+00:00)

Transit 2A - Pass Details

Date: 23 October 2019
Orbit: 601 x 957 km, 66.7° (Epoch: 19 November)

Event Time Altitude Azimuth Distance (km) Brightness Sun altitude
Rises 20:20:49 0° 241° (WSW) 3,255 9.8 -30.1°
Reaches altitude 10° 20:23:27 10° 248° (WSW) 2,270 8.9 -30.5°
Enters shadow 20:28:14 41° 317° (NW) 1,010 6.9 -31.2°
